STARLINK-1034

Last updated on Thu Dec 12 2019 00:02:04 GMT+0000 (Coordinated Universal Time)

1 44757U 19074AW 19345.58335648 .00210921 00000-0 14998-2 0 9990 2 44757 53.0098 21.5515 0001684 37.5494 9.9579 15.72720752 4735

Satellite not in orbit